Snowfall_Accumulation
0.0 0.0 0.0 0.0 0.0 0.0 0.0 0.0 0.0 0.0 0.0 0.0 0.0 0.0 0.0 0.0 0.0 0.0 0.0 0.0 0.0 0.0 0.0 0.0 0.0 0.0 0.0
0.0 0.0 0.0 0.0 0.0 0.0 0.0 0.0 0.0 0.0 0.0 0.0 0.0 0.0 0.0 0.0 0.0 0.0 0.0 0.0 0.0 0.0 0.0 0.0 0.0 0.0 0.0
0.0 0.0 0.0 0.0 0.0 0.0 0.0 0.0 0.0 0.0 0.0 0.0 0.0 0.0 0.0 0.0 0.0 0.0 0.0 0.0 0.0 0.0 0.0 0.0 0.0 0.0 0.0
0.0 0.0 0.0 0.0 0.0 0.0 0.0 0.0 0.0 0.0 0.0 0.0 0.0 0.0 0.0 0.0 0.0 0.0 0.0 0.0 0.0 0.0 0.0 0.0 0.0 0.0 0.0
0.1 0.1 0.0 0.0 0.0 0.0 0.0 0.0 0.0 0.0 0.0 0.0 0.0 0.0 0.0 0.0 0.0 0.0 0.0 0.0 0.0 0.0 0.0 0.0 0.0 0.0 0.0
0.3 0.2 0.0 0.0 0.0 0.0 0.0 0.1 0.2 0.0 0.0 0.0 0.0 0.0 0.0 0.0 0.0 0.0 0.0 0.0 0.0 0.0 0.0 0.0 0.0 0.0 0.0
0.2 0.1 0.2 0.0 0.0 0.1 0.3 0.6 0.6 0.0 0.0 0.1 0.0 0.0 0.0 0.0 0.0 0.0 0.0 0.0 0.0 0.0 0.0 0.0 0.0 0.0 0.0
0.0 0.0 0.0 0.0 0.1 0.4 0.7 0.3 0.0 0.0 0.0 0.5 0.0 0.0 0.0 0.0 0.0 0.0 0.0 0.0 0.0 0.0 0.0 0.0 0.0 0.0 0.0
0.0 0.0 0.0 0.0 0.0 0.1 0.9 0.9 0.8 0.0 0.0 0.2 0.0 0.1 0.1 0.0 0.0 0.0 0.0 0.0 0.0 0.0 0.0 0.0 0.0 0.0 0.0
0.0 0.0 0.0 0.0 0.0 0.2 1.9 3.7 1.9 1.2 0.0 0.6 0.3 0.4 0.7 0.0 0.0 0.0 0.0 0.0 0.0 0.0 0.0 0.0 0.0 0.0 0.0
0.0 0.0 0.0 0.0 0.1 0.2 0.9 2.5 3.3 1.7 0.1 0.6 0.9 0.2 0.7 1.5 1.8 2.4 2.0 0.0 0.0 0.0 0.0 0.0 0.0 0.0 0.0
0.2 0.2 0.1 0.1 0.1 0.1 0.1 0.9 1.8 3.0 0.5 0.6 2.5 1.5 2.3 3.3 3.9 5.4 2.8 3.0 0.6 0.2 0.0 0.0 0.0 0.0 0.0
0.7 0.3 0.2 0.2 0.4 0.9 1.4 2.1 3.2 3.5 3.3 3.3 3.5 4.0 4.5 4.5 4.3 5.5 5.9 6.1 1.8 1.2 0.5 0.0 0.4 0.0 0.1
1.9 0.7 0.2 0.5 1.2 2.0 4.2 4.3 5.1 4.5 4.0 4.4 5.0 4.8 4.1 3.6 3.5 4.5 4.7 5.4 4.6 2.5 2.2 1.7 0.3 0.1 0.0
1.3 1.0 0.3 1.2 1.9 3.5 5.8 5.7 5.7 5.0 5.1 4.9 4.0 3.5 3.1 2.8 3.4 3.8 4.1 4.5 3.8 3.5 2.4 2.5 2.5 1.1 0.6
1.3 1.4 2.3 2.9 3.7 4.6 6.3 6.3 6.1 5.8 5.9 5.0 4.1 3.2 2.7 2.4 2.3 3.5 3.5 3.9 3.5 2.4 1.3 1.2 1.9 1.5 0.1
2.8 3.2 3.4 3.8 4.5 5.4 5.4 5.4 5.3 3.9 2.4 1.4 1.2 1.7 2.3 2.1 2.1 1.7 1.9 2.2 2.0 1.9 1.3 0.5 0.7 0.8 0.3